Find KUIPER-00420

NORAD ID: 68932 Int'l Des: 2026-098P Owner: amazon-leo Country: USA Constellation: amazon-leo operational
LEOCIRCULAR

Live Position

Loading 3D Globe...

About KUIPER-00420

Description loading...

Upcoming Passes

Passes for default location (London). Set your location on the main map for personalized predictions.

Altitude History

Loading altitude history...

Two-Line Element Set

1 68932U 26098P 26125.50001156 .00000487 00000-0 24828-4 0 9994
2 68932 51.8775 273.3541 0003335 17.4398 252.2880 15.35528218 1710
Epoch: May 5, 2026 • Age: 11 hours

Current Status

Altitude 457.2 km
Velocity 7.64 km/s
Sub-Earth Point 6.91°N, 62.19°E
Type internet

Most Searched